Abilene, TX

3:06 PM CST on December 16, 2017 (GMT -0600)
Abilene Regional

Weather History for KABI - January, 2012

Change the Weather History Date:

Sunday, January 8, 2012

  Actual Average Record
Temperature  
Mean Temperature 42 °F 44 °F  
Max Temperature 52 °F 56 °F 88 °F (1969)
Min Temperature 32 °F 33 °F -3 °F (1886)
Degree Days  
Heating Degree Days 23 21  
Month to date heating degree days 144 168  
Since 1 July heating degree days 1169 1213  
Cooling Degree Days 0 0  
Month to date cooling degree days 0 0  
Year to date cooling degree days 0 0  
Moisture  
Dew Point 37 °F    
Average Humidity 76    
Maximum Humidity 89    
Minimum Humidity 63    
Precipitation  
Precipitation 0.03 in 0.03 in 0.97 in (1981)
Month to date precipitation 0.03 0.24  
Year to date precipitation 0.03 0.24  
Sea Level Pressure  
Sea Level Pressure 30.08 in    
Wind  
Wind Speed 6 mph (NNE)    
Max Wind Speed 17 mph    
Max Gust Speed 23 mph    
Visibility 10 miles    
Events Rain    
T = Trace of Precipitation, MM = Missing Value Source: NWS Daily Summary

Daily Weather History Graph

Daily Weather History Graph

Search for Another Location

Airport or City:

Trip Planner

Search our weather history database for the weather conditions in past years. The results will help you decide how hot, cold, wet, or windy it might be!

Date:

Astronomy

Jan. 08, 2012 Rise Set
Actual Time 7:41 AM CST 5:49 PM CST
Civil Twilight 7:14 AM CST 6:16 PM CST
Nautical Twilight 6:43 AM CST 6:46 PM CST
Astronomical Twilight 6:14 AM CST 7:16 PM CST
Moon 5:33 PM CST (1/8) 7:00 AM CST (1/8)
Length of Visible Light 11h 02m
Length of Day
10h 08m
Full, 100% of the Moon is Illuminated
Jan 8
Full
Jan 9
Full
Jan 16
Last Quarter
Jan 23
New
Jan 30
First Quarter

Hourly Weather History & Observations

Time (CST) Temp. Windchill Dew Point Humidity Pressure Visibility Wind Dir Wind Speed Gust Speed Precip Events Conditions
12:52 AM 41.0 °F 37.1 °F 30.9 °F 67% 30.02 in 10.0 mi South 5.8 mph - N/A   Clear
1:52 AM 39.9 °F 35.8 °F 30.9 °F 70% 30.01 in 10.0 mi SSE 5.8 mph - N/A   Clear
2:52 AM 39.9 °F - 30.9 °F 70% 30.02 in 10.0 mi Calm Calm - N/A   Clear
3:52 AM 37.0 °F - 30.0 °F 76% 30.02 in 10.0 mi Calm Calm - N/A   Clear
4:52 AM 35.1 °F - 30.0 °F 82% 30.02 in 10.0 mi Calm Calm - N/A   Clear
5:52 AM 36.0 °F - 30.0 °F 79% 30.03 in 10.0 mi Calm Calm - N/A   Clear
6:52 AM 33.1 °F - 28.0 °F 82% 30.05 in 10.0 mi Calm Calm - N/A   Clear
7:52 AM 34.0 °F 28.0 °F 30.0 °F 85% 30.06 in 10.0 mi NNW 6.9 mph - N/A   Clear
8:00 AM - - - N/A% - - North - - N/A   Unknown
8:52 AM 36.0 °F 32.1 °F 32.0 °F 86% 30.08 in 10.0 mi NNW 4.6 mph - N/A   Clear
9:52 AM 39.0 °F - 34.0 °F 82% 30.12 in 10.0 mi Calm Calm - N/A   Mostly Cloudy
10:52 AM 44.1 °F - 36.0 °F 73% 30.12 in 10.0 mi Calm Calm - N/A   Overcast
11:52 AM 46.9 °F - 37.9 °F 71% 30.13 in 10.0 mi Calm Calm - N/A   Overcast
12:52 PM 50.0 °F - 39.0 °F 66% 30.08 in 10.0 mi ENE 10.4 mph - N/A   Overcast
1:52 PM 52.0 °F - 39.9 °F 63% 30.07 in 10.0 mi NE 5.8 mph - N/A   Overcast
2:52 PM 52.0 °F - 39.9 °F 63% 30.06 in 10.0 mi NE 11.5 mph - N/A   Overcast
3:52 PM 52.0 °F - 41.0 °F 66% 30.06 in 10.0 mi ENE 8.1 mph - N/A   Overcast
4:52 PM 52.0 °F - 42.1 °F 69% 30.05 in 10.0 mi NE 10.4 mph - N/A   Overcast
5:52 PM 52.0 °F - 42.1 °F 69% 30.07 in 10.0 mi NNE 11.5 mph - N/A   Overcast
6:52 PM 50.0 °F - 42.1 °F 74% 30.09 in 10.0 mi NE 11.5 mph - N/A   Overcast
7:52 PM 48.9 °F - 39.9 °F 71% 30.12 in 10.0 mi NNE 15.0 mph 23.0 mph N/A   Overcast
7:59 PM 48.2 °F - 39.2 °F 71% 30.11 in 10.0 mi NNE 10.4 mph 23.0 mph N/A   Overcast
8:52 PM 46.9 °F - 39.0 °F 74% 30.15 in 10.0 mi NNE 8.1 mph 17.3 mph 0.00 in Rain Light Rain
9:39 PM 44.6 °F 39.2 °F 42.8 °F 93% 30.12 in 10.0 mi North 10.4 mph - 0.03 in   Overcast
9:52 PM 45.0 °F 40.6 °F 41.0 °F 86% 30.13 in 10.0 mi NNE 8.1 mph - 0.03 in   Overcast
10:16 PM 44.6 °F 40.2 °F 42.8 °F 93% 30.14 in 10.0 mi North 8.1 mph - N/A   Overcast
10:52 PM 44.1 °F 37.4 °F 39.9 °F 85% 30.15 in 10.0 mi North 13.8 mph - N/A   Overcast
11:52 PM 43.0 °F 37.2 °F 39.0 °F 86% 30.17 in 9.0 mi NNE 10.4 mph - 0.00 in Rain Light Rain